Regional Weather Roundup
Issued by NWS

Home | Current Version | Previous Version | Text Only | Print | Product List | Glossary Off
Versions: 1 2 3 4 5 6 7 8 9 10 11 12 13 14 15 16 17 18 19 20 21 22 23 24 25 26 27 28 29 30 31 32 33 34 35 36 37 38 39 40 41 42 43 44 45 46 47 48 49 50

000
ASUS43 KLMK 230210
RWRKY
KENTUCKY REGIONAL WEATHER ROUNDUP
NATIONAL WEATHER SERVICE LOUISVILLE KY
900 PM EST MON JAN 22 2018

NOTE "FAIR" INDICATES FEW OR NO CLOUDS BELOW 12,000 FEET
WITH NO SIGNIFICANT WEATHER AND/OR OBSTRUCTIONS TO VISIBILITY.

KYZ001>023-026-027-061>063-070>075-230300-
WESTERN AND SOUTH CENTRAL KENTUCKY

CITY           SKY/WX    TMP DP  RH WIND       PRES   REMARKS
PADUCAH        CLOUDY    50  30  46 SW21G35   29.71R
HENDERSON      FAIR      49  35  58 SW18G31   29.67R
OWENSBORO      FAIR      50  36  58 W20G26    29.67R
HOPKINSVILLE   FAIR      52  33  49 W18G28    29.72R
BOWLING GREEN  MOCLDY    60  41  49 SW21G36   29.69R
GLASGOW        LGT RAIN  58  49  71 SW16      29.69R
$$

KYZ024-025-028>034-038-045-046-053-230300-
NORTH CENTRAL KENTUCKY

CITY           SKY/WX    TMP DP  RH WIND       PRES   REMARKS
LOUISVILLE/SDF LGT RAIN  57  41  55 S20G49    29.61R
LOUISVILLE/LOU LGT RAIN  57  42  57 SW18G54   29.62R
FORT KNOX      MOCLDY    52  45  77 S15       29.62F
$$

KYZ035>037-039>044-047>052-055>060-089>105-230300-
NORTHEAST KENTUCKY

CITY           SKY/WX    TMP DP  RH WIND       PRES   REMARKS
LEXINGTON      MOCLDY    58  52  80 S17G28    29.63F
COVINGTON      CLOUDY    57  53  86 S15G26    29.57F THUNDER
FRANKFORT      LGT RAIN  58  49  72 SW15G23   29.60F
$$

KYZ054-064>069-076>088-106>120-230300-
SOUTHEAST KENTUCKY

CITY           SKY/WX    TMP DP  RH WIND       PRES   REMARKS
JACKSON        FAIR      56  46  69 VRB3      29.72F
LONDON         FAIR      59  51  75 S15G26    29.70F
SOMERSET       MOCLDY    59  50  72 S16       29.71F
MIDDLESBORO    CLOUDY    53  50  89 CALM      29.79F
MONTICELLO     MOCLDY    61  54  77 S10G21    29.70S
$$





USA.gov is the U.S. government's official web portal to all federal, state and local government web resources and services.